[[{"header":{"parameterUnit":"m.s-1","parameterCategory":1,"la1":30.2991,"la2":30.254,"lo1":-89.0895,"lo2":-89.0444,"dy":0.0017,"dx":0.0017,"nx":28,"ny":28,"refTime":"2025-02-04T03:00:00:Z","depth":0,"parameterNumber":2,"parameterNumberName":"U-component_of_WINDS"},"data":[0,0,0,0,0,0,0,0,0,0,0,0,0,0,0,0,0,0,0,0,0,0,0,0,0,0,0,0,0,0,0,0,0,0,0,0,0,0,0,0,0,0,0,0,0,0,0,0,0,0,0,0,0,0,0,0,0,0,0.5883,0.5884,0,0.5995,0.5996,0.5997,0.6027,0.6026,0.6025,0.6025,0.6141,0.6144,0.6148,0,0,0,0,0,0,0,0,0,0,0,0,0,0.5694,0.5697,0.5882,0.5884,0.5885,0.5994,0.5996,0.5998,0.6027,0.6026,0.6025,0.6024,0.6139,0.6144,0.6148,0,0,0,0,0,0,0,0,0,0,0,0,0,0.5788,0.5699,0.5882,0.5913,0.5917,0.5994,0.5996,0.5998,0.6027,0.6026,0.6025,0.6024,0.6138,0.6143,0.6149,0.6204,0,0,0.6166,0.6168,0,0,0,0,0,0,0,0,0.5783,0.5795,0.5907,0.5911,0.5915,0.5996,0.5972,0.6067,0.6027,0.5985,0.6025,0.6023,0.6093,0.6102,0.6126,0.6209,0.6214,0.6166,0.617,0.6172,0.6174,0,0,0,0,0,0,0,0.5776,0.579,0.5927,0.5909,0.5914,0.5921,0.5934,0.599,0.6044,0.5989,0.5991,0.6004,0.6095,0.612,0.6129,0.6216,0.6166,0.6171,0.6175,0.6177,0.635,0.6351,0,0,0,0,0,0,0.5764,0.5785,0.5923,0.593,0.5845,0.5926,0.5939,0.5971,0.6043,0.6053,0.6005,0.6005,0.6111,0.6122,0.6133,0.6202,0.6172,0.6177,0.6181,0.6349,0.635,0.6352,0,0,0,0,0,0,0.576,0.5776,0.5919,0.5858,0.5877,0.593,0.5965,0.5974,0.5999,0.6055,0.6065,0.602,0.6111,0.6125,0.6186,0.6206,0.618,0.6185,0.6347,0.6349,0.6351,0.634,0,0,0,0,0,0,0.5755,0.5775,0.5796,0.5858,0.588,0.597,0.5967,0.5977,0.6008,0.6009,0.6072,0.6082,0.6111,0.6177,0.6191,0.6213,0.6189,0.6346,0.6348,0.635,0.6339,0.6341,0.6343,0,0,0,0,0,0.5748,0.5789,0.5797,0.5813,0.5908,0.5971,0.5983,0.6016,0.601,0.6031,0.6068,0.608,0.6202,0.6183,0.6199,0.6223,0.6345,0.6347,0.635,0.6338,0.6341,0.6343,0,0,0,0,0,0,0.5727,0.5797,0.5807,0.587,0.5914,0.5975,0.6004,0.6018,0.6065,0.6064,0.6103,0.6117,0.6175,0.6206,0.6184,0.628,0.6273,0.6279,0.6258,0.6262,0.6264,0.6255,0.6194,0,0,0,0,0,0.573,0.5775,0.5834,0.5883,0.5905,0.5951,0.5979,0.6001,0.6048,0.6067,0.6108,0.6154,0.6203,0.6234,0.6282,0.6343,0.6358,0.6368,0.637,0.6372,0.6377,0.6411,0.6416,0.6361,0.6361,0.6361,0,0,0.5736,0.578,0.5806,0.588,0.5917,0.5963,0.5966,0.6015,0.6049,0.6075,0.6134,0.6166,0.622,0.6281,0.631,0.6308,0.6395,0.6375,0.6376,0.638,0.6415,0.642,0.6424,0.6363,0.6362,0.6362,0,0,0.5771,0.5809,0.5854,0.5891,0.5946,0.5976,0.5987,0.6047,0.6068,0.6129,0.6149,0.6191,0.6274,0.6311,0.6341,0.639,0.6403,0.6404,0.6417,0.645,0.6454,0.6458,0.6475,0.6481,0.6409,0.6409,0.6409,0,0.5772,0.5842,0.5875,0.5923,0.5955,0.598,0.6026,0.606,0.6128,0.615,0.6147,0.6251,0.6289,0.6359,0.6371,0.6395,0.6408,0.6397,0.6451,0.6455,0.6459,0.6476,0.6483,0.6409,0.6409,0.6409,0.6409,0,0.5839,0.5888,0.5917,0.5983,0.6018,0.6065,0.6105,0.6137,0.6155,0.6186,0.6247,0.6294,0.6351,0.637,0.6388,0.6443,0.6439,0.6443,0.6437,0.6464,0.648,0.6487,0.6409,0.6409,0.6409,0.6409,0,0,0.5864,0.5947,0.5958,0.5988,0.6051,0.6089,0.6137,0.6193,0.6219,0.6266,0.6306,0.6376,0.638,0.6414,0.6436,0.6466,0.6501,0.6466,0.6468,0.647,0.6564,0.656,0.6567,0.651,0.6511,0.6512,0.6559,0,0.5907,0.5992,0.6024,0.6095,0.6139,0.6164,0.6205,0.6248,0.6278,0.6321,0.6354,0.6402,0.6403,0.6424,0.6454,0.649,0.652,0.6487,0.6548,0.655,0.6534,0.6576,0.6573,0.6614,0.6566,0.6567,0.6568,0,0.5967,0.6014,0.6089,0.6146,0.6166,0.6203,0.6257,0.6297,0.6347,0.6367,0.6404,0.6425,0.6476,0.6467,0.6537,0.6514,0.6541,0.6563,0.6565,0.6572,0.656,0.6583,0.6629,0.6635,0.6578,0.6577,0.6576,0,0.5977,0.6059,0.6115,0.6139,0.6208,0.6233,0.6263,0.6312,0.6343,0.639,0.6411,0.6464,0.6493,0.6533,0.6567,0.6557,0.6635,0.6628,0.6653,0.6652,0.6668,0.6666,0.6717,0.6685,0.6685,0.6685,0.6685,0,0.6021,0.6066,0.612,0.6154,0.6205,0.6241,0.629,0.6322,0.6365,0.6405,0.643,0.6467,0.6511,0.6554,0.6581,0.6636,0.6649,0.6666,0.6672,0.6663,0.6661,0.6681,0.6679,0.6687,0.6687,0.6686,0.6686,0,0.6041,0.6079,0.6141,0.6201,0.6217,0.6251,0.6303,0.6337,0.6367,0.6418,0.6432,0.6481,0.6533,0.6571,0.6639,0.6657,0.6715,0.6722,0.6698,0.6702,0.6724,0.6721,0.6789,0.68,0.6761,0.6761,0.6762,0,0.6066,0.6101,0.6164,0.6193,0.6223,0.6269,0.6301,0.6338,0.6371,0.643,0.6457,0.6511,0.6556,0.6638,0.6679,0.6731,0.6739,0.676,0.6747,0.6737,0.6739,0.6736,0.674,0.6761,0.6761,0.6762,0.6762,0,0.6106,0.6124,0.6169,0.6221,0.6259,0.6302,0.6345,0.6368,0.6413,0.6448,0.6501,0.6536,0.6605,0.6658,0.6714,0.6745,0.6761,0.6765,0.6774,0.6765,0.6749,0.6758,0.6703,0.6764,0.6763,0.6763,0.6763,0.6763,0.613,0.6162,0.6211,0.6261,0.6298,0.6338,0.6372,0.6407,0.6452,0.6511,0.653,0.6586,0.6635,0.6711,0.6743,0.6786,0.6786,0.6798,0.6801,0.6804,0.6803,0.6742,0.6797,0.6797,0.6797,0.6797,0.6797,0,0.6171,0.6204,0.625,0.6309,0.6349,0.636,0.6409,0.6441,0.6489,0.6533,0.6577,0.6638,0.669,0.6735,0.6788,0.6815,0.6823,0.6828,0.6826,0.6833,0.68,0.6787,0.682,0.682,0.682,0.682,0.682,0.682,0.6197,0.6252,0.6275,0.6348,0.6381,0.6435,0.6462,0.6499,0.6534,0.6601,0.6644,0.6673,0.6718,0.6775,0.6823,0.6835,0.6853,0.6855,0.6869,0.6838,0.6835,0.6832,0.6821,0.6859,0.6859,0.6898,0.6899,0.6899]},{"header":{"parameterUnit":"m.s-1","parameterCategory":1,"la1":30.2991,"la2":30.254,"lo1":-89.0895,"lo2":-89.0444,"dy":0.0017,"dx":0.0017,"nx":28,"ny":28,"refTime":"2025-02-04T03:00:00:Z","depth":0,"parameterNumber":3,"parameterNumberName":"V-component_of_WINDS"},"data":[0,0,0,0,0,0,0,0,0,0,0,0,0,0,0,0,0,0,0,0,0,0,0,0,0,0,0,0,0,0,0,0,0,0,0,0,0,0,0,0,0,0,0,0,0,0,0,0,0,0,0,0,0,0,0,0,0,0,1.4911,1.4911,0,1.4852,1.4852,1.4851,1.4809,1.4809,1.4809,1.4808,1.4744,1.4743,1.4741,0,0,0,0,0,0,0,0,0,0,0,0,0,1.4985,1.4984,1.4911,1.4911,1.491,1.4852,1.4852,1.4851,1.4809,1.4809,1.4809,1.4808,1.4745,1.4743,1.4741,0,0,0,0,0,0,0,0,0,0,0,0,0,1.4942,1.4984,1.4912,1.4882,1.4879,1.4852,1.4851,1.485,1.4809,1.4809,1.4808,1.4808,1.4745,1.4743,1.4741,1.4737,0,0,1.4735,1.4734,0,0,0,0,0,0,0,0,1.4945,1.4939,1.4887,1.4884,1.4881,1.4838,1.4854,1.4812,1.4809,1.4836,1.4808,1.4808,1.4775,1.4771,1.4761,1.4734,1.4732,1.4734,1.4733,1.4732,1.4732,0,0,0,0,0,0,0,1.4948,1.4942,1.4888,1.4887,1.4883,1.4871,1.4865,1.4846,1.4809,1.4833,1.483,1.4824,1.4773,1.4763,1.4759,1.4731,1.4734,1.4733,1.4731,1.473,1.4698,1.4699,0,0,0,0,0,0,1.4956,1.4945,1.489,1.4886,1.4912,1.487,1.4863,1.4852,1.4809,1.4802,1.4825,1.4822,1.4767,1.4761,1.4756,1.475,1.4732,1.473,1.4729,1.4698,1.4698,1.4699,0,0,0,0,0,0,1.4957,1.4951,1.4892,1.4914,1.4906,1.487,1.4858,1.4851,1.484,1.4802,1.4795,1.4821,1.4766,1.4759,1.4743,1.4747,1.4729,1.4727,1.4697,1.4698,1.4699,1.4736,0,0,0,0,0,0,1.496,1.4952,1.4951,1.4915,1.4905,1.4881,1.4858,1.485,1.4837,1.4834,1.4797,1.479,1.4765,1.4746,1.4741,1.4744,1.4726,1.4697,1.4698,1.4698,1.4734,1.4738,1.4741,0,0,0,0,0,1.4963,1.4963,1.4951,1.4945,1.4903,1.4881,1.4875,1.4848,1.4838,1.4836,1.4812,1.4791,1.4747,1.4745,1.4738,1.4741,1.4696,1.4697,1.4698,1.4733,1.4737,1.4741,0,0,0,0,0,0,1.5,1.4958,1.4944,1.4934,1.4911,1.4874,1.4871,1.4853,1.4832,1.483,1.4795,1.4787,1.4774,1.4755,1.4753,1.4735,1.4719,1.4719,1.4748,1.4751,1.4755,1.476,1.4724,0,0,0,0,0,1.5007,1.4994,1.4957,1.4951,1.4941,1.4908,1.4897,1.4878,1.4853,1.4843,1.4817,1.4793,1.4773,1.4761,1.4741,1.4731,1.4722,1.4729,1.4733,1.4736,1.4736,1.4729,1.4732,1.4702,1.4702,1.4702,0,0,1.5022,1.4997,1.499,1.4958,1.4939,1.4924,1.49,1.4886,1.4875,1.484,1.4824,1.4804,1.4774,1.4761,1.4754,1.4745,1.4742,1.4737,1.4739,1.4738,1.473,1.4733,1.4736,1.4703,1.4702,1.4702,0,0,1.5041,1.5021,1.5014,1.4995,1.4966,1.4945,1.4943,1.4908,1.4894,1.4877,1.4851,1.4836,1.4803,1.4783,1.4769,1.4781,1.4761,1.4775,1.4792,1.4786,1.4789,1.4791,1.4795,1.4797,1.4775,1.4775,1.4775,0,1.5062,1.5041,1.5012,1.5,1.4987,1.4956,1.4948,1.493,1.4896,1.4887,1.4878,1.4836,1.4814,1.4796,1.4799,1.4788,1.4784,1.4779,1.4791,1.4793,1.4794,1.4798,1.4799,1.4777,1.4777,1.4777,1.4776,0,1.5069,1.5054,1.5052,1.5021,1.5007,1.4997,1.4966,1.4955,1.4937,1.4916,1.4898,1.487,1.4844,1.4838,1.482,1.4817,1.4813,1.4798,1.4782,1.4799,1.4802,1.4803,1.478,1.4779,1.4779,1.4778,0,0,1.5111,1.5064,1.5064,1.505,1.5015,1.5003,1.4991,1.4967,1.4958,1.4935,1.4924,1.4897,1.4883,1.4867,1.4846,1.484,1.4852,1.4826,1.4824,1.4832,1.4847,1.486,1.4862,1.4838,1.4838,1.4838,1.485,0,1.5125,1.5104,1.5078,1.5065,1.5051,1.5021,1.5011,1.4988,1.4968,1.4952,1.4929,1.4911,1.4893,1.4883,1.4877,1.4852,1.4854,1.485,1.4827,1.4827,1.4836,1.4863,1.4876,1.4888,1.4851,1.4851,1.4851,0,1.5139,1.512,1.5106,1.5073,1.5067,1.5058,1.5034,1.5019,1.4992,1.4978,1.496,1.4937,1.4922,1.4908,1.4886,1.4884,1.4873,1.4859,1.4859,1.4856,1.4841,1.4862,1.4892,1.4894,1.4853,1.4853,1.4852,0,1.5172,1.5142,1.513,1.5118,1.508,1.5074,1.5058,1.503,1.5018,1.4996,1.4987,1.4963,1.495,1.4932,1.4903,1.4895,1.4884,1.4867,1.4871,1.4872,1.4871,1.4872,1.49,1.4863,1.4863,1.4863,1.4863,0,1.5192,1.5185,1.5144,1.5137,1.5128,1.5097,1.5088,1.5069,1.5045,1.5033,1.5004,1.4993,1.4955,1.4939,1.4916,1.4902,1.4896,1.4883,1.4877,1.4886,1.4888,1.4879,1.4877,1.4863,1.4863,1.4863,1.4863,0,1.5227,1.52,1.5185,1.515,1.5141,1.5136,1.5105,1.5096,1.5074,1.5059,1.5053,1.5018,1.4998,1.4967,1.4937,1.4921,1.4911,1.4901,1.4921,1.4917,1.4924,1.4924,1.4948,1.4949,1.4911,1.4911,1.4911,0,1.5242,1.5236,1.52,1.5191,1.5176,1.516,1.5147,1.5116,1.5103,1.5073,1.5067,1.5045,1.5026,1.4994,1.4965,1.4942,1.4931,1.4941,1.4928,1.4937,1.4932,1.4933,1.4933,1.4945,1.4946,1.4946,1.4946,0,1.5271,1.5258,1.5241,1.5219,1.5205,1.5186,1.5166,1.5159,1.5123,1.511,1.509,1.5075,1.5045,1.5023,1.4996,1.4977,1.4956,1.4951,1.4951,1.496,1.4972,1.4966,1.493,1.4951,1.495,1.495,1.495,1.495,1.5297,1.529,1.5265,1.5247,1.5228,1.521,1.52,1.5177,1.516,1.5134,1.5116,1.5097,1.5069,1.5031,1.5013,1.4997,1.4988,1.4988,1.4988,1.4988,1.4992,1.4975,1.4992,1.4991,1.4991,1.4991,1.4991,0,1.5325,1.5307,1.5291,1.5264,1.525,1.5232,1.5208,1.5197,1.5181,1.5158,1.514,1.5116,1.5094,1.5064,1.504,1.5033,1.5022,1.5027,1.5028,1.5024,1.5001,1.5004,1.5036,1.5036,1.5036,1.5036,1.5036,1.5036,1.5338,1.5327,1.531,1.5289,1.527,1.5253,1.5241,1.5223,1.5205,1.518,1.5163,1.5143,1.5117,1.5091,1.507,1.5061,1.5054,1.5062,1.5051,1.503,1.5026,1.5022,1.5024,1.5061,1.5061,1.5075,1.5075,1.5075]}]]